Crosby, ND

3:36 PM CST on December 10, 2016 (GMT -0600)
Crosby

Weather History for KD50 - January, 2014

Change the Weather History Date:

Thursday, January 30, 2014

  Actual Average (KISN) Record (KISN)
Temperature  
Mean Temperature -1 °F -  
Max Temperature 3 °F 21 °F 51 °F (2012)
Min Temperature -5 °F 2 °F -33 °F (1969)
Degree Days  
Heating Degree Days 66    
Moisture  
Dew Point -8 °F    
Average Humidity 74    
Maximum Humidity 92    
Minimum Humidity 60    
Precipitation  
Precipitation 0.00 in - - ()
Sea Level Pressure  
Sea Level Pressure 29.88 in    
Wind  
Wind Speed 16 mph (NW)    
Max Wind Speed 22 mph    
Max Gust Speed 30 mph    
Visibility 9 miles    
Events Rain , Snow    
Averages and records for this station are not official NWS values.
T = Trace of Precipitation, MM = Missing Value Source: NWS Daily Summary

Daily Weather History Graph

Daily Weather History Graph

Search for Another Location

Airport or City:

Trip Planner

Search our weather history database for the weather conditions in past years. The results will help you decide how hot, cold, wet, or windy it might be!

Date:

Astronomy

Jan. 30, 2014 Rise Set
Actual Time 8:26 AM CST 5:47 PM CST
Civil Twilight 7:51 AM CST 6:21 PM CST
Nautical Twilight 7:13 AM CST 6:59 PM CST
Astronomical Twilight 6:36 AM CST 7:37 PM CST
Moon 7:49 AM CST (1/30) 6:07 PM CST (1/30)
Length of Visible Light 10h 29m
Length of Day
9h 21m
Waning Crescent, 0% of the Moon is Illuminated
Jan 30
Waning Crescent
Jan 30
New
Feb 6
First Quarter
Feb 14
Full
Feb 22
Last Quarter

Hourly Weather History & Observations

Time (CST) Temp. Windchill Dew Point Humidity Pressure Visibility Wind Dir Wind Speed Gust Speed Precip Events Conditions
12:15 AM 3.2 °F -15.9 °F -0.4 °F 85% 29.67 in 10.0 mi NNW 16.1 mph - N/A   Unknown
12:35 AM 1.4 °F -15.3 °F -2.2 °F 85% 29.68 in 10.0 mi NNW 11.5 mph 19.6 mph N/A   Unknown
12:55 AM 1.4 °F -15.3 °F -2.2 °F 85% 29.70 in 10.0 mi NNW 11.5 mph - N/A   Unknown
1:15 AM 1.4 °F -17.6 °F -2.2 °F 85% 29.70 in 10.0 mi NW 15.0 mph - N/A   Unknown
1:35 AM 1.4 °F -17.6 °F -2.2 °F 85% 29.71 in 10.0 mi NNW 15.0 mph - N/A   Unknown
1:55 AM -0.4 °F -19.2 °F -2.2 °F 92% 29.72 in 10.0 mi NNW 13.8 mph - N/A   Unknown
2:15 AM -0.4 °F -17.6 °F -4.0 °F 85% 29.73 in 10.0 mi NNW 11.5 mph 18.4 mph N/A   Unknown
2:35 AM -0.4 °F -19.2 °F -4.0 °F 85% 29.74 in 10.0 mi NNW 13.8 mph - N/A   Unknown
2:55 AM -0.4 °F -20.5 °F -4.0 °F 85% 29.75 in 10.0 mi NNW 16.1 mph 20.7 mph N/A   Unknown
3:15 AM -0.4 °F -19.9 °F -4.0 °F 85% 29.76 in 10.0 mi NNW 15.0 mph - N/A   Unknown
3:35 AM -0.4 °F -20.5 °F -4.0 °F 85% 29.77 in 10.0 mi NNW 16.1 mph - N/A   Unknown
3:55 AM -0.4 °F -18.4 °F -4.0 °F 85% 29.78 in 10.0 mi NNW 12.7 mph - N/A   Unknown
4:15 AM -0.4 °F -18.4 °F -4.0 °F 85% 29.78 in 10.0 mi NW 12.7 mph - N/A   Unknown
4:35 AM -0.4 °F -20.5 °F -5.8 °F 78% 29.79 in 10.0 mi NW 16.1 mph - N/A   Unknown
4:55 AM -0.4 °F -21.2 °F -4.0 °F 85% 29.80 in 10.0 mi NW 17.3 mph - N/A   Unknown
5:15 AM -0.4 °F -22.3 °F -4.0 °F 85% 29.81 in 10.0 mi NW 19.6 mph 24.2 mph N/A   Unknown
5:35 AM -0.4 °F -21.7 °F -4.0 °F 85% 29.82 in 10.0 mi NW 18.4 mph 24.2 mph N/A   Unknown
5:55 AM -0.4 °F -21.2 °F -4.0 °F 85% 29.82 in 10.0 mi NW 17.3 mph - N/A   Unknown
6:15 AM -0.4 °F -22.3 °F -5.8 °F 78% 29.83 in 10.0 mi NNW 19.6 mph 25.3 mph N/A Snow Light Snow
6:35 AM -0.4 °F -20.5 °F -7.6 °F 72% 29.83 in 6.0 mi NNW 16.1 mph 25.3 mph N/A Rain Light Freezing Rain
6:55 AM -0.4 °F -21.2 °F -5.8 °F 78% 29.83 in - NNW 17.3 mph 25.3 mph N/A Snow Heavy Snow
7:15 AM -0.4 °F -22.8 °F -4.0 °F 85% 29.85 in 8.0 mi NNW 20.7 mph - N/A Snow Light Snow
7:35 AM -0.4 °F -20.5 °F -5.8 °F 78% 29.86 in - NNW 16.1 mph 24.2 mph N/A Snow Heavy Snow
7:55 AM -2.2 °F -24.1 °F -7.6 °F 78% 29.86 in - NNW 18.4 mph 23.0 mph N/A   Unknown
8:15 AM -2.2 °F -22.2 °F -7.6 °F 78% 29.87 in - NNW 15.0 mph 23.0 mph N/A   Unknown
8:35 AM -2.2 °F -25.2 °F -7.6 °F 78% 29.88 in - NNW 20.7 mph 28.8 mph N/A   Unknown
8:55 AM -2.2 °F -23.5 °F -7.6 °F 78% 29.89 in - NNW 17.3 mph 24.2 mph N/A   Unknown
9:15 AM -2.2 °F -25.7 °F -9.4 °F 71% 29.90 in 7.0 mi NNW 21.9 mph 29.9 mph N/A Snow Light Snow
9:35 AM -2.2 °F -24.1 °F -9.4 °F 71% 29.91 in 3.0 mi NW 18.4 mph 28.8 mph N/A Snow Light Snow
9:55 AM -2.2 °F -25.2 °F -9.4 °F 71% 29.92 in 5.0 mi NNW 20.7 mph 29.9 mph N/A Rain Light Freezing Rain
10:15 AM -2.2 °F -24.1 °F -11.2 °F 66% 29.93 in 10.0 mi NNW 18.4 mph 23.0 mph N/A   Unknown
10:35 AM -2.2 °F -22.9 °F -9.4 °F 71% 29.93 in 8.0 mi NW 16.1 mph 24.2 mph N/A Snow Light Snow
10:55 AM -2.2 °F -23.5 °F -9.4 °F 71% 29.94 in 6.0 mi NW 17.3 mph 24.2 mph N/A   Haze
11:15 AM -0.4 °F -22.8 °F -7.6 °F 72% 29.94 in 5.0 mi NW 20.7 mph 26.5 mph N/A Snow Light Snow
11:35 AM -0.4 °F -22.8 °F -9.4 °F 66% 29.95 in 9.0 mi NNW 20.7 mph 25.3 mph N/A   Unknown
11:55 AM -0.4 °F -20.5 °F -7.6 °F 72% 29.95 in 9.0 mi NNW 16.1 mph 23.0 mph N/A   Unknown
12:15 PM -0.4 °F -21.2 °F -7.6 °F 72% 29.95 in 3.0 mi NW 17.3 mph 20.7 mph N/A Rain Light Freezing Rain
12:35 PM -0.4 °F -22.3 °F -7.6 °F 72% 29.95 in 2.5 mi NNW 19.6 mph - N/A Rain Light Freezing Rain
12:55 PM -2.2 °F -24.7 °F -9.4 °F 71% 29.95 in 5.0 mi NNW 19.6 mph 25.3 mph N/A   Haze
1:15 PM -0.4 °F -23.3 °F -9.4 °F 66% 29.94 in 9.0 mi NW 21.9 mph 27.6 mph N/A   Unknown
1:35 PM -0.4 °F -22.8 °F -9.4 °F 66% 29.94 in 10.0 mi NW 20.7 mph 24.2 mph N/A   Unknown
1:55 PM -0.4 °F -23.3 °F -11.2 °F 60% 29.94 in 10.0 mi NW 21.9 mph 29.9 mph N/A   Unknown
2:15 PM -0.4 °F -23.3 °F -11.2 °F 60% 29.94 in 10.0 mi NW 21.9 mph 27.6 mph N/A   Unknown
2:35 PM -0.4 °F -21.2 °F -9.4 °F 66% 29.94 in 5.0 mi NW 17.3 mph 21.9 mph N/A Rain Light Freezing Rain
2:55 PM -2.2 °F -23.5 °F -9.4 °F 71% 29.94 in 4.0 mi NW 17.3 mph 24.2 mph N/A Rain Light Freezing Rain
3:15 PM -0.4 °F -21.7 °F -9.4 °F 66% 29.94 in 10.0 mi WNW 18.4 mph 23.0 mph N/A   Unknown
3:35 PM -2.2 °F -24.1 °F -9.4 °F 71% 29.94 in 8.0 mi NW 18.4 mph - N/A   Unknown
3:55 PM -2.2 °F -22.9 °F -9.4 °F 71% 29.94 in 8.0 mi NW 16.1 mph 23.0 mph N/A   Unknown
4:15 PM -2.2 °F -25.7 °F -9.4 °F 71% 29.94 in 2.5 mi WNW 21.9 mph 26.5 mph N/A Rain Light Freezing Rain
4:35 PM -2.2 °F -25.2 °F -13.0 °F 60% 29.95 in 10.0 mi WNW 20.7 mph 27.6 mph N/A   Unknown
4:55 PM -4.0 °F -28.1 °F -13.0 °F 65% 29.94 in 10.0 mi NW 21.9 mph 27.6 mph N/A   Unknown
5:15 PM -4.0 °F -25.2 °F -13.0 °F 65% 29.95 in 10.0 mi NW 16.1 mph - N/A   Unknown
5:35 PM -4.0 °F -26.4 °F -13.0 °F 65% 29.95 in 10.0 mi NW 18.4 mph 28.8 mph N/A   Unknown
5:55 PM -5.8 °F -27.5 °F -13.0 °F 71% 29.94 in 10.0 mi NW 16.1 mph 26.5 mph N/A   Unknown
6:15 PM -5.8 °F -28.8 °F -13.0 °F 71% 29.95 in 10.0 mi NW 18.4 mph 24.2 mph N/A   Unknown
6:35 PM -5.8 °F -26.8 °F -13.0 °F 71% 29.95 in 10.0 mi WNW 15.0 mph - N/A   Unknown
6:55 PM -5.8 °F -25.2 °F -13.0 °F 71% 29.94 in 10.0 mi WNW 12.7 mph - N/A   Unknown
7:15 PM -4.0 °F -22.1 °F -13.0 °F 65% 29.94 in 10.0 mi WNW 11.5 mph - N/A   Unknown
7:35 PM -4.0 °F -23.7 °F -13.0 °F 65% 29.94 in 10.0 mi WNW 13.8 mph - N/A   Unknown
7:55 PM -4.0 °F -24.5 °F -11.2 °F 71% 29.94 in 10.0 mi WNW 15.0 mph - N/A   Unknown
8:15 PM -4.0 °F -24.5 °F -11.2 °F 71% 29.94 in 10.0 mi WNW 15.0 mph - N/A   Unknown
8:35 PM -4.0 °F -24.5 °F -11.2 °F 71% 29.94 in 10.0 mi WNW 15.0 mph 19.6 mph N/A   Unknown
8:55 PM -4.0 °F -23.7 °F -11.2 °F 71% 29.94 in 10.0 mi WNW 13.8 mph - N/A   Unknown
9:15 PM -4.0 °F -23.0 °F -11.2 °F 71% 29.94 in 10.0 mi West 12.7 mph - N/A   Unknown
9:35 PM -4.0 °F -23.0 °F -11.2 °F 71% 29.94 in 10.0 mi West 12.7 mph - N/A   Unknown
9:55 PM -4.0 °F -22.1 °F -9.4 °F 78% 29.94 in 10.0 mi West 11.5 mph - N/A   Unknown
10:15 PM -4.0 °F -21.2 °F -11.2 °F 71% 29.93 in - West 10.4 mph - N/A   Unknown
10:35 PM -4.0 °F -21.2 °F -11.2 °F 71% 29.93 in - West 10.4 mph - N/A   Unknown
10:55 PM -4.0 °F -25.2 °F -9.4 °F 78% 29.92 in - West 16.1 mph - N/A   Unknown
11:15 PM -4.0 °F -23.0 °F -11.2 °F 71% 29.91 in - West 12.7 mph - N/A   Unknown
11:35 PM -4.0 °F -24.5 °F -11.2 °F 71% 29.91 in - West 15.0 mph - N/A   Unknown
11:55 PM -4.0 °F -23.7 °F -9.4 °F 78% 29.91 in - West 13.8 mph - N/A   Unknown